Year,Month,Day,Hour,Minute,Value (Times are PST for temperature in C)
2014,09,28,00,00,11.80
2014,09,28,00,01,11.80
2014,09,28,00,02,11.80
2014,09,28,00,03,11.80
2014,09,28,00,04,11.70
2014,09,28,00,05,11.70
2014,09,28,00,06,11.70
2014,09,28,00,07,11.70
2014,09,28,00,08,11.70
2014,09,28,00,09,11.70
2014,09,28,00,10,11.70
2014,09,28,00,11,11.70
2014,09,28,00,12,11.70
2014,09,28,00,13,11.70
2014,09,28,00,14,11.60
2014,09,28,00,15,11.60
2014,09,28,00,16,11.60
2014,09,28,00,17,11.60
2014,09,28,00,18,11.60
2014,09,28,00,19,11.60
2014,09,28,00,20,11.60
2014,09,28,00,21,11.50
2014,09,28,00,22,11.50
2014,09,28,00,23,11.50
2014,09,28,00,24,11.40
2014,09,28,00,25,11.40
2014,09,28,00,26,11.40
2014,09,28,00,27,11.40
2014,09,28,00,28,11.40
2014,09,28,00,29,11.40
2014,09,28,00,30,11.30
2014,09,28,00,31,11.30
2014,09,28,00,32,11.40
2014,09,28,00,33,11.40
2014,09,28,00,34,11.30
2014,09,28,00,35,11.30
2014,09,28,00,36,11.30
2014,09,28,00,37,11.30
2014,09,28,00,38,11.30
2014,09,28,00,39,11.30
2014,09,28,00,40,11.30
2014,09,28,00,41,11.30
2014,09,28,00,42,11.30
2014,09,28,00,43,11.30
2014,09,28,00,44,11.20
2014,09,28,00,45,11.20
2014,09,28,00,46,11.20
2014,09,28,00,47,11.20
2014,09,28,00,48,11.20
2014,09,28,00,49,11.20
2014,09,28,00,50,11.20
2014,09,28,00,51,11.20
2014,09,28,00,52,11.20
2014,09,28,00,53,11.10
2014,09,28,00,54,11.10
2014,09,28,00,55,11.10
2014,09,28,00,56,11.10
2014,09,28,00,57,11.10
2014,09,28,00,58,11.10
2014,09,28,00,59,11.00
2014,09,28,01,00,11.00
2014,09,28,01,01,11.00
2014,09,28,01,02,11.00
2014,09,28,01,03,11.00
2014,09,28,01,04,11.00
2014,09,28,01,05,10.90
2014,09,28,01,06,10.90
2014,09,28,01,07,10.90
2014,09,28,01,08,10.90
2014,09,28,01,09,10.90
2014,09,28,01,10,10.90
2014,09,28,01,11,10.90
2014,09,28,01,12,10.90
2014,09,28,01,13,10.90
2014,09,28,01,14,10.80
2014,09,28,01,15,10.80
2014,09,28,01,16,10.80
2014,09,28,01,17,10.80
2014,09,28,01,18,10.80
2014,09,28,01,19,10.80
2014,09,28,01,20,10.80
2014,09,28,01,21,10.80
2014,09,28,01,22,10.80
2014,09,28,01,23,10.80
2014,09,28,01,24,10.80
2014,09,28,01,25,10.80
2014,09,28,01,26,10.80
2014,09,28,01,27,10.80
2014,09,28,01,28,10.80
2014,09,28,01,29,10.80
2014,09,28,01,30,10.80
2014,09,28,01,31,10.80
2014,09,28,01,32,10.80
2014,09,28,01,33,10.80
2014,09,28,01,34,10.80
2014,09,28,01,35,10.80
2014,09,28,01,36,10.80
2014,09,28,01,37,10.80
2014,09,28,01,38,10.80
2014,09,28,01,39,10.80
2014,09,28,01,40,10.80
2014,09,28,01,41,10.70
2014,09,28,01,42,10.70
2014,09,28,01,43,10.70
2014,09,28,01,44,10.70
2014,09,28,01,45,10.70
2014,09,28,01,46,10.70
2014,09,28,01,47,10.70
2014,09,28,01,48,10.70
2014,09,28,01,49,10.70
2014,09,28,01,50,10.70
2014,09,28,01,51,10.60
2014,09,28,01,52,10.60
2014,09,28,01,53,10.60
2014,09,28,01,54,10.60
2014,09,28,01,55,10.50
2014,09,28,01,56,10.50
2014,09,28,01,57,10.50
2014,09,28,01,58,10.50
2014,09,28,01,59,10.50
2014,09,28,02,00,10.60
2014,09,28,02,01,10.60
2014,09,28,02,02,10.60
2014,09,28,02,03,10.60
2014,09,28,02,04,10.60
2014,09,28,02,05,10.60
2014,09,28,02,06,10.50
2014,09,28,02,07,10.50
2014,09,28,02,08,10.50
2014,09,28,02,09,10.50
2014,09,28,02,10,10.50
2014,09,28,02,11,10.40
2014,09,28,02,12,10.40
2014,09,28,02,13,10.40
2014,09,28,02,14,10.40
2014,09,28,02,15,10.40
2014,09,28,02,16,10.40
2014,09,28,02,17,10.40
2014,09,28,02,18,10.30
2014,09,28,02,19,10.30
2014,09,28,02,20,10.30
2014,09,28,02,21,10.30
2014,09,28,02,22,10.30
2014,09,28,02,23,10.30
2014,09,28,02,24,10.30
2014,09,28,02,25,10.30
2014,09,28,02,26,10.30
2014,09,28,02,27,10.30
2014,09,28,02,28,10.30
2014,09,28,02,29,10.20
2014,09,28,02,30,10.20
2014,09,28,02,31,10.20
2014,09,28,02,32,10.20
2014,09,28,02,33,10.20
2014,09,28,02,34,10.20
2014,09,28,02,35,10.20
2014,09,28,02,36,10.20
2014,09,28,02,37,10.20
2014,09,28,02,38,10.20
2014,09,28,02,39,10.20
2014,09,28,02,40,10.20
2014,09,28,02,41,10.20
2014,09,28,02,42,10.20
2014,09,28,02,43,10.20
2014,09,28,02,44,10.20
2014,09,28,02,45,10.20
2014,09,28,02,46,10.20
2014,09,28,02,47,10.10
2014,09,28,02,48,10.10
2014,09,28,02,49,10.10
2014,09,28,02,50,10.10
2014,09,28,02,51,10.10
2014,09,28,02,52,10.10
2014,09,28,02,53,10.10
2014,09,28,02,54,10.10
2014,09,28,02,55,10.10
2014,09,28,02,56,10.10
2014,09,28,02,57,10.10
2014,09,28,02,58,10.20
2014,09,28,02,59,10.20
2014,09,28,03,00,10.20
2014,09,28,03,01,10.20
2014,09,28,03,02,10.20
2014,09,28,03,03,10.20
2014,09,28,03,04,10.20
2014,09,28,03,05,10.20
2014,09,28,03,06,10.20
2014,09,28,03,07,10.20
2014,09,28,03,08,10.20
2014,09,28,03,09,10.20
2014,09,28,03,10,10.20
2014,09,28,03,11,10.20
2014,09,28,03,12,10.20
2014,09,28,03,13,10.20
2014,09,28,03,14,10.20
2014,09,28,03,15,10.20
2014,09,28,03,16,10.20
2014,09,28,03,17,10.20
2014,09,28,03,18,10.20
2014,09,28,03,19,10.20
2014,09,28,03,20,10.20
2014,09,28,03,21,10.20
2014,09,28,03,22,10.20
2014,09,28,03,23,10.10
2014,09,28,03,24,10.10
2014,09,28,03,25,10.10
2014,09,28,03,26,10.10
2014,09,28,03,27,10.10
2014,09,28,03,28,10.10
2014,09,28,03,29,10.10
2014,09,28,03,30,10.10
2014,09,28,03,31,10.10
2014,09,28,03,32,10.10
2014,09,28,03,33,10.00
2014,09,28,03,34,10.00
2014,09,28,03,35,10.00
2014,09,28,03,36,10.00
2014,09,28,03,37,10.00
2014,09,28,03,38,9.90
2014,09,28,03,39,9.90
2014,09,28,03,40,9.90
2014,09,28,03,41,9.90
2014,09,28,03,42,9.90
2014,09,28,03,43,9.90
2014,09,28,03,44,9.90
2014,09,28,03,45,9.90
2014,09,28,03,46,9.90
2014,09,28,03,47,9.90
2014,09,28,03,48,9.90
2014,09,28,03,49,9.90
2014,09,28,03,50,9.90
2014,09,28,03,51,9.90
2014,09,28,03,52,9.90
2014,09,28,03,53,9.90
2014,09,28,03,54,9.90
2014,09,28,03,55,9.90
2014,09,28,03,56,9.90
2014,09,28,03,57,9.90
2014,09,28,03,58,9.90
2014,09,28,03,59,9.90
2014,09,28,04,00,9.90
2014,09,28,04,01,9.90
2014,09,28,04,02,9.90
2014,09,28,04,03,9.90
2014,09,28,04,04,9.90
2014,09,28,04,05,9.90
2014,09,28,04,06,9.90
2014,09,28,04,07,9.90
2014,09,28,04,08,9.90
2014,09,28,04,09,9.90
2014,09,28,04,10,9.90
2014,09,28,04,11,9.90
2014,09,28,04,12,9.90
2014,09,28,04,13,9.90
2014,09,28,04,14,9.90
2014,09,28,04,15,10.00
2014,09,28,04,16,10.00
2014,09,28,04,17,10.00
2014,09,28,04,18,10.00
2014,09,28,04,19,10.00
2014,09,28,04,20,10.00
2014,09,28,04,21,10.00
2014,09,28,04,22,10.00
2014,09,28,04,23,10.00
2014,09,28,04,24,10.00
2014,09,28,04,25,10.00
2014,09,28,04,26,10.00
2014,09,28,04,27,10.00
2014,09,28,04,28,10.00
2014,09,28,04,29,10.00
2014,09,28,04,30,10.00
2014,09,28,04,31,10.00
2014,09,28,04,32,10.00
2014,09,28,04,33,10.00
2014,09,28,04,34,10.10
2014,09,28,04,35,10.10
2014,09,28,04,36,10.10
2014,09,28,04,37,10.10
2014,09,28,04,38,10.20
2014,09,28,04,39,10.20
2014,09,28,04,40,10.20
2014,09,28,04,41,10.20
2014,09,28,04,42,10.20
2014,09,28,04,43,10.20
2014,09,28,04,44,10.20
2014,09,28,04,45,10.20
2014,09,28,04,46,10.20
2014,09,28,04,47,10.20
2014,09,28,04,48,10.20
2014,09,28,04,49,10.20
2014,09,28,04,50,10.20
2014,09,28,04,51,10.20
2014,09,28,04,52,10.20
2014,09,28,04,53,10.10
2014,09,28,04,54,10.10
2014,09,28,04,55,10.10
2014,09,28,04,56,10.10
2014,09,28,04,57,10.00
2014,09,28,04,58,10.00
2014,09,28,04,59,9.90
2014,09,28,05,00,9.90
2014,09,28,05,01,9.90
2014,09,28,05,02,9.90
2014,09,28,05,03,9.90
2014,09,28,05,04,9.90
2014,09,28,05,05,9.90
2014,09,28,05,06,9.90
2014,09,28,05,07,9.90
2014,09,28,05,08,9.90
2014,09,28,05,09,9.90
2014,09,28,05,10,9.90
2014,09,28,05,11,9.90
2014,09,28,05,12,9.90
2014,09,28,05,13,9.90
2014,09,28,05,14,9.90
2014,09,28,05,15,9.90
2014,09,28,05,16,9.90
2014,09,28,05,17,9.90
2014,09,28,05,18,9.90
2014,09,28,05,19,9.90
2014,09,28,05,20,9.90
2014,09,28,05,21,9.90
2014,09,28,05,22,9.90
2014,09,28,05,23,9.90
2014,09,28,05,24,9.90
2014,09,28,05,25,9.90
2014,09,28,05,26,9.90
2014,09,28,05,27,9.90
2014,09,28,05,28,9.90
2014,09,28,05,29,9.90
2014,09,28,05,30,9.90
2014,09,28,05,31,9.90
2014,09,28,05,32,9.90
2014,09,28,05,33,9.80
2014,09,28,05,34,9.80
2014,09,28,05,35,9.80
2014,09,28,05,36,9.80
2014,09,28,05,37,9.80
2014,09,28,05,38,9.80
2014,09,28,05,39,9.90
2014,09,28,05,40,9.80
2014,09,28,05,41,9.90
2014,09,28,05,42,9.90
2014,09,28,05,43,9.80
2014,09,28,05,44,9.80
2014,09,28,05,45,9.80
2014,09,28,05,46,9.80
2014,09,28,05,47,9.80
2014,09,28,05,48,9.80
2014,09,28,05,49,9.80
2014,09,28,05,50,9.70
2014,09,28,05,51,9.70
2014,09,28,05,52,9.70
2014,09,28,05,53,9.70
2014,09,28,05,54,9.70
2014,09,28,05,55,9.70
2014,09,28,05,56,9.70
2014,09,28,05,57,9.70
2014,09,28,05,58,9.70
2014,09,28,05,59,9.70
2014,09,28,06,00,9.70
2014,09,28,06,01,9.70
2014,09,28,06,02,9.70
2014,09,28,06,03,9.70
2014,09,28,06,04,9.70
2014,09,28,06,05,9.70
2014,09,28,06,06,9.70
2014,09,28,06,07,9.70
2014,09,28,06,08,9.70
2014,09,28,06,09,9.70
2014,09,28,06,10,9.70
2014,09,28,06,11,9.70
2014,09,28,06,12,9.80
2014,09,28,06,13,9.80
2014,09,28,06,14,9.70
2014,09,28,06,15,9.70
2014,09,28,06,16,9.70
2014,09,28,06,17,9.70
2014,09,28,06,18,9.70
2014,09,28,06,19,9.60
2014,09,28,06,20,9.60
2014,09,28,06,21,9.60
2014,09,28,06,22,9.60
2014,09,28,06,23,9.60
2014,09,28,06,24,9.60
2014,09,28,06,25,9.60
2014,09,28,06,26,9.50
2014,09,28,06,27,9.50
2014,09,28,06,28,9.50
2014,09,28,06,29,9.50
2014,09,28,06,30,9.60
2014,09,28,06,31,9.60
2014,09,28,06,32,9.60
2014,09,28,06,33,9.60
2014,09,28,06,34,9.60
2014,09,28,06,35,9.60
2014,09,28,06,36,9.60
2014,09,28,06,37,9.60
2014,09,28,06,38,9.60
2014,09,28,06,39,9.60
2014,09,28,06,40,9.60
2014,09,28,06,41,9.60
2014,09,28,06,42,9.60
2014,09,28,06,43,9.60
2014,09,28,06,44,9.70
2014,09,28,06,45,9.70
2014,09,28,06,46,9.70
2014,09,28,06,47,9.70
2014,09,28,06,48,9.80
2014,09,28,06,49,9.80
2014,09,28,06,50,9.80
2014,09,28,06,51,9.80
2014,09,28,06,52,9.90
2014,09,28,06,53,9.90
2014,09,28,06,54,9.90
2014,09,28,06,55,9.90
2014,09,28,06,56,9.90
2014,09,28,06,57,9.90
2014,09,28,06,58,10.00
2014,09,28,06,59,10.00
2014,09,28,07,00,10.00
2014,09,28,07,01,10.00
2014,09,28,07,02,10.00
2014,09,28,07,03,10.00
2014,09,28,07,04,10.00
2014,09,28,07,05,10.00
2014,09,28,07,06,10.10
2014,09,28,07,07,10.10
2014,09,28,07,08,10.10
2014,09,28,07,09,10.10
2014,09,28,07,10,10.10
2014,09,28,07,11,10.10
2014,09,28,07,12,10.10
2014,09,28,07,13,10.20
2014,09,28,07,14,10.20
2014,09,28,07,15,10.20
2014,09,28,07,16,10.20
2014,09,28,07,17,10.20
2014,09,28,07,18,10.20
2014,09,28,07,19,10.20
2014,09,28,07,20,10.30
2014,09,28,07,21,10.30
2014,09,28,07,22,10.30
2014,09,28,07,23,10.30
2014,09,28,07,24,10.30
2014,09,28,07,25,10.30
2014,09,28,07,26,10.30
2014,09,28,07,27,10.30
2014,09,28,07,28,10.30
2014,09,28,07,29,10.30
2014,09,28,07,30,10.30
2014,09,28,07,31,10.30
2014,09,28,07,32,10.40
2014,09,28,07,33,10.40
2014,09,28,07,34,10.40
2014,09,28,07,35,10.40
2014,09,28,07,36,10.40
2014,09,28,07,37,10.40
2014,09,28,07,38,10.50
2014,09,28,07,39,10.50
2014,09,28,07,40,10.50
2014,09,28,07,41,10.50
2014,09,28,07,42,10.50
2014,09,28,07,43,10.50
2014,09,28,07,44,10.50
2014,09,28,07,45,10.50
2014,09,28,07,46,10.50
2014,09,28,07,47,10.60
2014,09,28,07,48,10.60
2014,09,28,07,49,10.60
2014,09,28,07,50,10.60
2014,09,28,07,51,10.60
2014,09,28,07,52,10.60
2014,09,28,07,53,10.70
2014,09,28,07,54,10.70
2014,09,28,07,55,10.70
2014,09,28,07,56,10.70
2014,09,28,07,57,10.70
2014,09,28,07,58,10.70
2014,09,28,07,59,10.70
2014,09,28,08,00,10.70
2014,09,28,08,01,10.70
2014,09,28,08,02,10.80
2014,09,28,08,03,10.80
2014,09,28,08,04,10.80
2014,09,28,08,05,10.80
2014,09,28,08,06,10.80
2014,09,28,08,07,10.80
2014,09,28,08,08,10.80
2014,09,28,08,09,10.80
2014,09,28,08,10,10.80
2014,09,28,08,11,10.90
2014,09,28,08,12,10.90
2014,09,28,08,13,10.90
2014,09,28,08,14,10.90
2014,09,28,08,15,10.90
2014,09,28,08,16,10.90
2014,09,28,08,17,10.90
2014,09,28,08,18,10.90
2014,09,28,08,19,11.00
2014,09,28,08,20,11.00
2014,09,28,08,21,11.00
2014,09,28,08,22,11.10
2014,09,28,08,23,11.10
2014,09,28,08,24,11.10
2014,09,28,08,25,11.10
2014,09,28,08,26,11.10
2014,09,28,08,27,11.10
2014,09,28,08,28,11.20
2014,09,28,08,29,11.20
2014,09,28,08,30,11.20
2014,09,28,08,31,11.20
2014,09,28,08,32,11.20
2014,09,28,08,33,11.20
2014,09,28,08,34,11.30
2014,09,28,08,35,11.30
2014,09,28,08,36,11.30
2014,09,28,08,37,11.30
2014,09,28,08,38,11.30
2014,09,28,08,39,11.30
2014,09,28,08,40,11.30
2014,09,28,08,41,11.30
2014,09,28,08,42,11.40
2014,09,28,08,43,11.40
2014,09,28,08,44,11.40
2014,09,28,08,45,11.40
2014,09,28,08,46,11.40
2014,09,28,08,47,11.40
2014,09,28,08,48,11.40
2014,09,28,08,49,11.40
2014,09,28,08,50,11.50
2014,09,28,08,51,11.50
2014,09,28,08,52,11.50
2014,09,28,08,53,11.50
2014,09,28,08,54,11.50
2014,09,28,08,55,11.60
2014,09,28,08,56,11.60
2014,09,28,08,57,11.60
2014,09,28,08,58,11.60
2014,09,28,08,59,11.60
2014,09,28,09,00,11.60
2014,09,28,09,01,11.60
2014,09,28,09,02,11.70
2014,09,28,09,03,11.70
2014,09,28,09,04,11.70
2014,09,28,09,05,11.70
2014,09,28,09,06,11.70
2014,09,28,09,07,11.70
2014,09,28,09,08,11.70
2014,09,28,09,09,11.70
2014,09,28,09,10,11.70
2014,09,28,09,11,11.80
2014,09,28,09,12,11.80
2014,09,28,09,13,11.80
2014,09,28,09,14,11.80
2014,09,28,09,15,11.80
2014,09,28,09,16,11.80
2014,09,28,09,17,11.80
2014,09,28,09,18,11.90
2014,09,28,09,19,11.90
2014,09,28,09,20,11.90
2014,09,28,09,21,11.90
2014,09,28,09,22,11.90
2014,09,28,09,23,11.90
2014,09,28,09,24,11.90
2014,09,28,09,25,11.90
2014,09,28,09,26,11.90
2014,09,28,09,27,11.90
2014,09,28,09,28,11.90
2014,09,28,09,29,11.90
2014,09,28,09,30,11.90
2014,09,28,09,31,12.00
2014,09,28,09,32,11.90
2014,09,28,09,33,12.00
2014,09,28,09,34,12.00
2014,09,28,09,35,12.00
2014,09,28,09,36,12.00
2014,09,28,09,37,12.00
2014,09,28,09,38,12.10
2014,09,28,09,39,12.10
2014,09,28,09,40,12.10
2014,09,28,09,41,12.10
2014,09,28,09,42,12.10
2014,09,28,09,43,12.10
2014,09,28,09,44,12.20
2014,09,28,09,45,12.20
2014,09,28,09,46,12.30
2014,09,28,09,47,12.30
2014,09,28,09,48,12.30
2014,09,28,09,49,12.30
2014,09,28,09,50,12.40
2014,09,28,09,51,12.40
2014,09,28,09,52,12.50
2014,09,28,09,53,12.50
2014,09,28,09,54,12.50
2014,09,28,09,55,12.60
2014,09,28,09,56,12.60
2014,09,28,09,57,12.60
2014,09,28,09,58,12.60
2014,09,28,09,59,12.60
2014,09,28,10,00,12.70
2014,09,28,10,01,12.70
2014,09,28,10,02,12.70
2014,09,28,10,03,12.70
2014,09,28,10,04,12.70
2014,09,28,10,05,12.70
2014,09,28,10,06,12.70
2014,09,28,10,07,12.70
2014,09,28,10,08,12.70
2014,09,28,10,09,12.70
2014,09,28,10,10,12.80
2014,09,28,10,11,12.80
2014,09,28,10,12,12.80
2014,09,28,10,13,12.80
2014,09,28,10,14,12.90
2014,09,28,10,15,12.90
2014,09,28,10,16,12.90
2014,09,28,10,17,12.90
2014,09,28,10,18,12.90
2014,09,28,10,19,12.90
2014,09,28,10,20,12.90
2014,09,28,10,21,12.90
2014,09,28,10,22,12.90
2014,09,28,10,23,12.90
2014,09,28,10,24,12.90
2014,09,28,10,25,12.90
2014,09,28,10,26,12.90
2014,09,28,10,27,12.90
2014,09,28,10,28,12.90
2014,09,28,10,29,13.00
2014,09,28,10,30,13.00
2014,09,28,10,31,13.10
2014,09,28,10,32,13.10
2014,09,28,10,33,13.10
2014,09,28,10,34,13.10
2014,09,28,10,35,13.20
2014,09,28,10,36,13.10
2014,09,28,10,37,13.10
2014,09,28,10,38,13.20
2014,09,28,10,39,13.20
2014,09,28,10,40,13.20
2014,09,28,10,41,13.20
2014,09,28,10,42,13.20
2014,09,28,10,43,13.20
2014,09,28,10,44,13.30
2014,09,28,10,45,13.30
2014,09,28,10,46,13.30
2014,09,28,10,47,13.30
2014,09,28,10,48,13.30
2014,09,28,10,49,13.30
2014,09,28,10,50,13.30
2014,09,28,10,51,13.30
2014,09,28,10,52,13.30
2014,09,28,10,53,13.30
2014,09,28,10,54,13.30
2014,09,28,10,55,13.30
2014,09,28,10,56,13.40
2014,09,28,10,57,13.40
2014,09,28,10,58,13.40
2014,09,28,10,59,13.50
2014,09,28,11,00,13.50
2014,09,28,11,01,13.50
2014,09,28,11,02,13.60
2014,09,28,11,03,13.60
2014,09,28,11,04,13.60
2014,09,28,11,05,13.60
2014,09,28,11,06,13.60
2014,09,28,11,07,13.70
2014,09,28,11,08,13.70
2014,09,28,11,09,13.80
2014,09,28,11,10,13.80
2014,09,28,11,11,13.80
2014,09,28,11,12,13.80
2014,09,28,11,13,13.80
2014,09,28,11,14,13.80
2014,09,28,11,15,13.80
2014,09,28,11,16,13.90
2014,09,28,11,17,13.90
2014,09,28,11,18,13.90
2014,09,28,11,19,13.90
2014,09,28,11,20,13.90
2014,09,28,11,21,14.00
2014,09,28,11,22,14.10
2014,09,28,11,23,14.10
2014,09,28,11,24,14.20
2014,09,28,11,25,14.20
2014,09,28,11,26,14.30
2014,09,28,11,27,14.30
2014,09,28,11,28,14.30
2014,09,28,11,29,14.30
2014,09,28,11,30,14.30
2014,09,28,11,31,14.30
2014,09,28,11,32,14.30
2014,09,28,11,33,14.30
2014,09,28,11,34,14.30
2014,09,28,11,35,14.30
2014,09,28,11,36,14.30
2014,09,28,11,37,14.30
2014,09,28,11,38,14.30
2014,09,28,11,39,14.30
2014,09,28,11,40,14.30
2014,09,28,11,41,14.30
2014,09,28,11,42,14.30
2014,09,28,11,43,14.30
2014,09,28,11,44,14.30
2014,09,28,11,45,14.30
2014,09,28,11,46,14.40
2014,09,28,11,47,14.40
2014,09,28,11,48,14.40
2014,09,28,11,49,14.40
2014,09,28,11,50,14.50
2014,09,28,11,51,14.50
2014,09,28,11,52,14.60
2014,09,28,11,53,14.60
2014,09,28,11,54,14.60
2014,09,28,11,55,14.60
2014,09,28,11,56,14.60
2014,09,28,11,57,14.50
2014,09,28,11,58,14.50
2014,09,28,11,59,14.40
2014,09,28,12,00,14.40
2014,09,28,12,01,14.40
2014,09,28,12,02,14.30
2014,09,28,12,03,14.30
2014,09,28,12,04,14.30
2014,09,28,12,05,14.30
2014,09,28,12,06,14.30
2014,09,28,12,07,14.30
2014,09,28,12,08,14.30
2014,09,28,12,09,14.30
2014,09,28,12,10,14.30
2014,09,28,12,11,14.30
2014,09,28,12,12,14.40
2014,09,28,12,13,14.50
2014,09,28,12,14,14.50
2014,09,28,12,15,14.60
2014,09,28,12,16,14.60
2014,09,28,12,17,14.60
2014,09,28,12,18,14.60
2014,09,28,12,19,14.70
2014,09,28,12,20,14.70
2014,09,28,12,21,14.70
2014,09,28,12,22,14.70
2014,09,28,12,23,14.70
2014,09,28,12,24,14.70
2014,09,28,12,25,14.70
2014,09,28,12,26,14.70
2014,09,28,12,27,14.80
2014,09,28,12,28,14.80
2014,09,28,12,29,14.80
2014,09,28,12,30,14.80
2014,09,28,12,31,14.90
2014,09,28,12,32,14.90
2014,09,28,12,33,14.90
2014,09,28,12,34,14.90
2014,09,28,12,35,14.80
2014,09,28,12,36,14.80
2014,09,28,12,37,14.90
2014,09,28,12,38,15.00
2014,09,28,12,39,15.00
2014,09,28,12,40,15.10
2014,09,28,12,41,15.20
2014,09,28,12,42,15.30
2014,09,28,12,43,15.30
2014,09,28,12,44,15.40
2014,09,28,12,45,15.40
2014,09,28,12,46,15.40
2014,09,28,12,47,15.40
2014,09,28,12,48,15.40
2014,09,28,12,49,15.40
2014,09,28,12,50,15.40
2014,09,28,12,51,15.50
2014,09,28,12,52,15.50
2014,09,28,12,53,15.60
2014,09,28,12,54,15.60
2014,09,28,12,55,15.70
2014,09,28,12,56,15.70
2014,09,28,12,57,15.80
2014,09,28,12,58,15.80
2014,09,28,12,59,15.80
2014,09,28,13,00,15.80
2014,09,28,13,01,15.80
2014,09,28,13,02,15.80
2014,09,28,13,03,15.90
2014,09,28,13,04,15.90
2014,09,28,13,05,15.90
2014,09,28,13,06,16.00
2014,09,28,13,07,16.00
2014,09,28,13,08,16.10
2014,09,28,13,09,16.10
2014,09,28,13,10,16.20
2014,09,28,13,11,16.20
2014,09,28,13,12,16.30
2014,09,28,13,13,16.40
2014,09,28,13,14,16.50
2014,09,28,13,15,16.50
2014,09,28,13,16,16.60
2014,09,28,13,17,16.70
2014,09,28,13,18,16.80
2014,09,28,13,19,16.90
2014,09,28,13,20,16.90
2014,09,28,13,21,17.00
2014,09,28,13,22,17.10
2014,09,28,13,23,17.20
2014,09,28,13,24,17.20
2014,09,28,13,25,17.20
2014,09,28,13,26,17.20
2014,09,28,13,27,17.20
2014,09,28,13,28,17.20
2014,09,28,13,29,17.20
2014,09,28,13,30,17.20
2014,09,28,13,31,17.30
2014,09,28,13,32,17.30
2014,09,28,13,33,17.30
2014,09,28,13,34,17.40
2014,09,28,13,35,17.40
2014,09,28,13,36,17.40
2014,09,28,13,37,17.50
2014,09,28,13,38,17.50
2014,09,28,13,39,17.60
2014,09,28,13,40,17.70
2014,09,28,13,41,17.70
2014,09,28,13,42,17.80
2014,09,28,13,43,17.80
2014,09,28,13,44,17.90
2014,09,28,13,45,18.00
2014,09,28,13,46,18.00
2014,09,28,13,47,18.10
2014,09,28,13,48,18.20
2014,09,28,13,49,18.20
2014,09,28,13,50,18.30
2014,09,28,13,51,18.30
2014,09,28,13,52,18.30
2014,09,28,13,53,18.30
2014,09,28,13,54,18.30
2014,09,28,13,55,18.50
2014,09,28,13,56,18.60
2014,09,28,13,57,18.60
2014,09,28,13,58,18.70
2014,09,28,13,59,18.70
2014,09,28,14,00,18.70
2014,09,28,14,01,18.70
2014,09,28,14,02,18.70
2014,09,28,14,03,18.80
2014,09,28,14,04,18.80
2014,09,28,14,05,19.00
2014,09,28,14,06,19.00
2014,09,28,14,07,19.10
2014,09,28,14,08,19.20
2014,09,28,14,09,19.20
2014,09,28,14,10,19.30
2014,09,28,14,11,19.30
2014,09,28,14,12,19.30
2014,09,28,14,13,19.40
2014,09,28,14,14,19.50
2014,09,28,14,15,19.50
2014,09,28,14,16,19.60
2014,09,28,14,17,19.60
2014,09,28,14,18,19.70
2014,09,28,14,19,19.70
2014,09,28,14,20,19.80
2014,09,28,14,21,19.80
2014,09,28,14,22,19.90
2014,09,28,14,23,20.00
2014,09,28,14,24,20.10
2014,09,28,14,25,20.10
2014,09,28,14,26,20.20
2014,09,28,14,27,20.20
2014,09,28,14,28,20.30
2014,09,28,14,29,20.30
2014,09,28,14,30,20.30
2014,09,28,14,31,20.40
2014,09,28,14,32,20.50
2014,09,28,14,33,20.60
2014,09,28,14,34,20.70
2014,09,28,14,35,20.80
2014,09,28,14,36,20.90
2014,09,28,14,37,21.00
2014,09,28,14,38,21.10
2014,09,28,14,39,21.10
2014,09,28,14,40,21.10
2014,09,28,14,41,21.10
2014,09,28,14,42,21.10
2014,09,28,14,43,21.20
2014,09,28,14,44,21.20
2014,09,28,14,45,21.20
2014,09,28,14,46,21.30
2014,09,28,14,47,21.30
2014,09,28,14,48,21.30
2014,09,28,14,49,21.30
2014,09,28,14,50,21.30
2014,09,28,14,51,21.40
2014,09,28,14,52,21.40
2014,09,28,14,53,21.50
2014,09,28,14,54,21.60
2014,09,28,14,55,21.60
2014,09,28,14,56,21.60
2014,09,28,14,57,21.50
2014,09,28,14,58,21.50
2014,09,28,14,59,21.50
2014,09,28,15,00,21.60
2014,09,28,15,01,21.60
2014,09,28,15,02,21.60
2014,09,28,15,03,21.70
2014,09,28,15,04,21.70
2014,09,28,15,05,21.70
2014,09,28,15,06,21.70
2014,09,28,15,07,21.70
2014,09,28,15,08,21.70
2014,09,28,15,09,21.70
2014,09,28,15,10,21.70
2014,09,28,15,11,21.80
2014,09,28,15,12,21.80
2014,09,28,15,13,21.80
2014,09,28,15,14,21.80
2014,09,28,15,15,21.80
2014,09,28,15,16,21.80
2014,09,28,15,17,21.90
2014,09,28,15,18,22.00
2014,09,28,15,19,22.00
2014,09,28,15,20,22.10
2014,09,28,15,21,22.20
2014,09,28,15,22,22.30
2014,09,28,15,23,22.30
2014,09,28,15,24,22.30
2014,09,28,15,25,22.30
2014,09,28,15,26,22.40
2014,09,28,15,27,22.50
2014,09,28,15,28,22.50
2014,09,28,15,29,22.60
2014,09,28,15,30,22.60
2014,09,28,15,31,22.50
2014,09,28,15,32,22.50
2014,09,28,15,33,22.40
2014,09,28,15,34,22.40
2014,09,28,15,35,22.40
2014,09,28,15,36,22.40
2014,09,28,15,37,22.40
2014,09,28,15,38,22.30
2014,09,28,15,39,22.30
2014,09,28,15,40,22.30
2014,09,28,15,41,22.30
2014,09,28,15,42,22.30
2014,09,28,15,43,22.30
2014,09,28,15,44,22.30
2014,09,28,15,45,22.30
2014,09,28,15,46,22.30
2014,09,28,15,47,22.40
2014,09,28,15,48,22.40
2014,09,28,15,49,22.40
2014,09,28,15,50,22.40
2014,09,28,15,51,22.40
2014,09,28,15,52,22.40
2014,09,28,15,53,22.50
2014,09,28,15,54,22.50
2014,09,28,15,55,22.60
2014,09,28,15,56,22.50
2014,09,28,15,57,22.60
2014,09,28,15,58,22.60
2014,09,28,15,59,22.60
2014,09,28,16,00,22.60
2014,09,28,16,01,22.60
2014,09,28,16,02,22.50
2014,09,28,16,03,22.50
2014,09,28,16,04,22.40
2014,09,28,16,05,22.30
2014,09,28,16,06,22.30
2014,09,28,16,07,22.30
2014,09,28,16,08,22.30
2014,09,28,16,09,22.30
2014,09,28,16,10,22.30
2014,09,28,16,11,22.20
2014,09,28,16,12,22.20
2014,09,28,16,13,22.20
2014,09,28,16,14,22.20
2014,09,28,16,15,22.20
2014,09,28,16,16,22.30
2014,09,28,16,17,22.30
2014,09,28,16,18,22.30
2014,09,28,16,19,22.40
2014,09,28,16,20,22.50
2014,09,28,16,21,22.60
2014,09,28,16,22,22.70
2014,09,28,16,23,22.70
2014,09,28,16,24,22.80
2014,09,28,16,25,22.80
2014,09,28,16,26,22.80
2014,09,28,16,27,22.90
2014,09,28,16,28,22.90
2014,09,28,16,29,23.00
2014,09,28,16,30,23.00
2014,09,28,16,31,23.10
2014,09,28,16,32,23.10
2014,09,28,16,33,23.20
2014,09,28,16,34,23.20
2014,09,28,16,35,23.20
2014,09,28,16,36,23.30
2014,09,28,16,37,23.30
2014,09,28,16,38,23.30
2014,09,28,16,39,23.30
2014,09,28,16,40,23.20
2014,09,28,16,41,23.20
2014,09,28,16,42,23.20
2014,09,28,16,43,23.20
2014,09,28,16,44,23.30
2014,09,28,16,45,23.30
2014,09,28,16,46,23.20
2014,09,28,16,47,23.20
2014,09,28,16,48,23.20
2014,09,28,16,49,23.20
2014,09,28,16,50,23.30
2014,09,28,16,51,23.30
2014,09,28,16,52,23.30
2014,09,28,16,53,23.40
2014,09,28,16,54,23.40
2014,09,28,16,55,23.40
2014,09,28,16,56,23.40
2014,09,28,16,57,23.40
2014,09,28,16,58,23.40
2014,09,28,16,59,23.30
2014,09,28,17,00,23.30
2014,09,28,17,01,23.30
2014,09,28,17,02,23.30
2014,09,28,17,03,23.30
2014,09,28,17,04,23.30
2014,09,28,17,05,23.30
2014,09,28,17,06,23.40
2014,09,28,17,07,23.40
2014,09,28,17,08,23.40
2014,09,28,17,09,23.40
2014,09,28,17,10,23.30
2014,09,28,17,11,23.30
2014,09,28,17,12,23.20
2014,09,28,17,13,23.20
2014,09,28,17,14,23.20
2014,09,28,17,15,23.20
2014,09,28,17,16,23.10
2014,09,28,17,17,23.10
2014,09,28,17,18,23.10
2014,09,28,17,19,23.10
2014,09,28,17,20,23.00
2014,09,28,17,21,22.90
2014,09,28,17,22,22.80
2014,09,28,17,23,22.80
2014,09,28,17,24,22.70
2014,09,28,17,25,22.70
2014,09,28,17,26,22.60